Iliamna, AK

4:02 AM AKDT on August 23, 2017 (GMT -0800)
Iliamna

Weather History for PAIL - February, 2014

Change the Weather History Date:

Friday, February 14, 2014

  Actual Average Record
Temperature  
Mean Temperature -5 °F -  
Max Temperature 3 °F 27 °F 49 °F (1986)
Min Temperature -13 °F 14 °F -21 °F (1964)
Degree Days  
Heating Degree Days 70    
Moisture  
Dew Point -11 °F    
Average Humidity 66    
Maximum Humidity 85    
Minimum Humidity 33    
Precipitation  
Precipitation 0.00 in - - ()
Sea Level Pressure  
Sea Level Pressure 29.04 in    
Wind  
Wind Speed 5 mph (WNW)    
Max Wind Speed 13 mph    
Max Gust Speed -    
Visibility 8 miles    
Events Snow    
Averages and records for this station are not official NWS values.
T = Trace of Precipitation, MM = Missing Value Source: NWS Daily Summary

Daily Weather History Graph

Daily Weather History Graph

Search for Another Location

Airport or City:

Trip Planner

Search our weather history database for the weather conditions in past years. The results will help you decide how hot, cold, wet, or windy it might be!

Date:

Astronomy

Feb. 14, 2014 Rise Set
Actual Time 8:58 AM AKST 6:09 PM AKST
Civil Twilight 8:15 AM AKST 6:53 PM AKST
Nautical Twilight 7:26 AM AKST 7:42 PM AKST
Astronomical Twilight 6:39 AM AKST 8:29 PM AKST
Moon 6:39 PM AKST (2/14) 8:20 AM AKST (2/14)
Length of Visible Light 10h 38m
Length of Day
9h 11m
Full, 100% of the Moon is Illuminated
Feb 14
Full
Feb 14
Full
Feb 22
Last Quarter
Feb 28
New
Mar 8
First Quarter

Hourly Weather History & Observations

Time (AKST) Temp. Windchill Dew Point Humidity Pressure Visibility Wind Dir Wind Speed Gust Speed Precip Events Conditions
12:53 AM -9.0 °F -25.2 °F -18.0 °F 65% 29.18 in 10.0 mi WNW 8.1 mph - N/A   Overcast
1:53 AM -8.0 °F -16.9 °F -16.1 °F 68% 29.18 in 10.0 mi WNW 3.5 mph - N/A   Overcast
3:53 AM -7.1 °F -18.1 °F -16.1 °F 65% 29.15 in 10.0 mi WNW 4.6 mph - N/A   Overcast
4:53 AM -9.0 °F -20.4 °F -17.0 °F 68% 29.15 in 10.0 mi WNW 4.6 mph - N/A   Clear
5:53 AM -9.0 °F -22.3 °F -16.1 °F 71% 29.13 in 10.0 mi NW 5.8 mph - N/A   Mostly Cloudy
6:53 AM -9.9 °F -23.4 °F -17.0 °F 71% 29.12 in 10.0 mi NW 5.8 mph - N/A   Clear
7:53 AM -9.0 °F -20.4 °F -17.0 °F 68% 29.11 in 10.0 mi NW 4.6 mph - N/A   Scattered Clouds
8:53 AM -8.0 °F -22.5 °F -16.1 °F 68% 29.10 in 10.0 mi WNW 6.9 mph - N/A   Mostly Cloudy
9:53 AM -7.1 °F - -16.1 °F 65% 29.10 in 10.0 mi Calm Calm - N/A   Scattered Clouds
10:53 AM -4.0 °F -14.6 °F -13.0 °F 65% 29.07 in 10.0 mi NNW 4.6 mph - N/A   Partly Cloudy
11:53 AM -2.0 °F -10.1 °F -14.1 °F 57% 29.07 in 10.0 mi WNW 3.5 mph - N/A   Overcast
12:53 PM -0.0 °F - -13.0 °F 54% 29.05 in 10.0 mi Calm Calm - N/A   Overcast
1:53 PM 1.9 °F - -13.0 °F 50% 29.04 in 10.0 mi Calm Calm - N/A   Mostly Cloudy
2:53 PM 3.9 °F -5.3 °F -11.0 °F 50% 29.03 in 10.0 mi NNE 4.6 mph - N/A   Mostly Cloudy
3:53 PM 3.0 °F -10.5 °F -11.9 °F 50% 29.00 in 10.0 mi WNW 8.1 mph - N/A   Overcast
4:53 PM 1.9 °F -5.6 °F -11.9 °F 52% 29.00 in 10.0 mi WSW 3.5 mph - N/A   Overcast
5:53 PM -0.0 °F -9.9 °F -13.0 °F 54% 29.00 in 10.0 mi West 4.6 mph - N/A   Overcast
6:53 PM 1.0 °F -11.7 °F -11.9 °F 55% 29.00 in 10.0 mi NNW 6.9 mph - N/A   Overcast
7:53 PM -0.9 °F -19.1 °F -11.9 °F 60% 29.00 in 7.0 mi WNW 12.7 mph - 0.00 in Snow Light Snow
8:02 PM -0.4 °F -16.7 °F -9.4 °F 66% 28.97 in 2.5 mi WNW 10.4 mph - 0.00 in Snow Light Snow
8:04 PM -0.4 °F -15.7 °F -9.4 °F 66% 28.98 in 2.0 mi WNW 9.2 mph - 0.00 in Snow Light Snow
8:47 PM -0.4 °F - -5.8 °F 78% 28.98 in 3.0 mi Calm Calm - 0.00 in Snow Light Snow
8:53 PM -0.0 °F - -5.1 °F 79% 29.00 in 5.0 mi Calm Calm - 0.00 in Snow Light Snow
9:07 PM -0.4 °F - -5.8 °F 78% 28.98 in 3.0 mi Calm Calm - 0.00 in Snow Light Snow
9:10 PM -0.4 °F - -5.8 °F 78% 28.98 in 2.0 mi Calm Calm - 0.00 in Snow Light Snow
9:53 PM -0.0 °F -11.6 °F -4.0 °F 83% 29.01 in 2.5 mi WNW 5.8 mph - 0.00 in Snow Light Snow
10:10 PM -0.4 °F -8.3 °F -4.0 °F 85% 28.98 in 3.0 mi West 3.5 mph - 0.00 in Snow Light Snow
10:53 PM -0.0 °F -7.9 °F -5.1 °F 79% 29.01 in 8.0 mi WSW 3.5 mph - 0.00 in Snow Light Snow
11:04 PM -0.4 °F -12.0 °F -5.8 °F 78% 28.98 in 2.5 mi West 5.8 mph - 0.00 in Snow Light Snow
11:13 PM -0.4 °F -8.3 °F -5.8 °F 78% 28.98 in 5.0 mi West 3.5 mph - 0.00 in Snow Light Snow
11:21 PM -0.4 °F -10.4 °F -5.8 °F 78% 28.98 in 9.0 mi West 4.6 mph - 0.00 in   Scattered Clouds
11:53 PM -0.9 °F -8.9 °F -6.0 °F 79% 29.01 in 10.0 mi West 3.5 mph - 0.00 in   Overcast